Location: Larch Mountain
(45.5297°N, 122.0872°W)
Time: 11:52:09
(UTC-08:00)

ISS - All Passes

Search period start: 02 December 2016 00:00
Search period end: 12 December 2016 00:00
Orbit: 401 x 410 km, 51.6° (Epoch: 03 December)

Date Brightness Start Highest point End Pass type
(mag) Time Alt. Az. Time Alt. Az. Time Alt. Az.
02 Dec - 00:24:30 10° WNW 00:27:39 42° SW 00:30:48 10° SE night (unlit)
02 Dec - 17:06:42 10° S 17:08:59 17° SE 17:11:16 10° E visible
02 Dec - 18:41:50 10° WSW 18:45:09 77° NNW 18:48:28 10° ENE visible
02 Dec - 20:19:03 10° WNW 20:22:00 29° N 20:24:58 10° NE visible
02 Dec - 21:56:03 10° NW 21:59:06 32° NNE 22:02:08 10° E night (unlit)
02 Dec - 23:32:31 10° WNW 23:35:50 73° SSW 23:39:07 10° SE night (unlit)
03 Dec - 01:10:41 10° WSW 01:11:49 11° SW 01:12:55 10° SSW night (unlit)
03 Dec - 17:50:00 10° SW 17:53:15 65° SSE 17:56:33 10° ENE visible
03 Dec - 19:26:53 10° W 19:29:57 34° NNW 19:33:01 10° NE visible
03 Dec - 21:04:05 10° NW 21:07:02 28° N 21:09:58 10° ENE night (unlit)
03 Dec - 22:40:36 10° WNW 22:43:55 69° NNE 22:47:13 10° ESE night (unlit)
04 Dec - 00:17:39 10° W 00:20:08 20° SW 00:22:37 10° S night (unlit)
04 Dec - 16:58:21 10° SSW 17:01:25 37° SE 17:04:31 10° ENE visible
04 Dec - 18:34:43 10° W 18:37:54 44° NNW 18:41:07 10° NE visible
04 Dec - 20:12:02 10° WNW 20:14:56 27° N 20:17:50 10° ENE visible
04 Dec - 21:48:43 10° NW 21:51:57 47° NNE 21:55:09 10° E night (unlit)
04 Dec - 23:25:21 10° WNW 23:28:23 34° SW 23:31:25 10° SSE night (unlit)
05 Dec - 16:07:03 10° S 16:09:39 22° SE 16:12:16 10° E daylight
05 Dec - 17:42:38 10° WSW 17:45:55 64° NNW 17:49:12 10° ENE visible
05 Dec - 19:19:54 10° WNW 19:22:49 28° N 19:25:45 10° ENE visible
05 Dec - 20:56:48 10° NW 20:59:54 35° NNE 21:02:59 10° E night (unlit)
05 Dec - 22:33:16 10° WNW 22:36:33 59° SSW 22:39:48 10° SE night (unlit)
06 Dec - 15:16:29 10° SSE 15:17:56 12° SE 15:19:25 10° ESE daylight
06 Dec - 16:50:40 10° SW 16:53:57 80° SSE 16:57:16 10° ENE visible
06 Dec - 18:27:42 10° WNW 18:30:43 31° NNW 18:33:44 10° NE visible
06 Dec - 20:04:50 10° NW 20:07:48 29° N 20:10:47 10° ENE visible
06 Dec - 21:41:18 10° WNW 21:44:38 83° NNE 21:47:57 10° ESE night (unlit)
06 Dec - 23:18:38 10° W 23:20:46 16° SW 23:22:52 10° S night (unlit)
07 Dec - 15:58:54 10° SW 16:02:03 46° SE 16:05:15 10° ENE daylight
07 Dec - 17:35:30 10° W 17:38:37 39° NNW 17:41:46 10° NE visible
07 Dec - 19:12:46 10° WNW 19:15:40 27° N 19:18:34 10° ENE visible
07 Dec - 20:49:23 10° WNW 20:52:39 54° NNE 20:55:54 10° ESE night (unlit)
07 Dec - 22:26:07 10° W 22:29:00 27° SW 22:31:51 10° SSE night (unlit)
08 Dec - 15:07:24 10° SSW 15:10:13 26° SE 15:13:03 10° E daylight
08 Dec - 16:43:19 10° WSW 16:46:34 54° NNW 16:49:49 10° ENE daylight
08 Dec - 18:20:38 10° WNW 18:23:31 27° N 18:26:25 10° ENE visible
08 Dec - 19:57:26 10° NW 20:00:35 39° NNE 20:03:43 10° E visible
08 Dec - 21:33:57 10° WNW 21:37:09 47° SW 21:40:21 10° SE night (unlit)
09 Dec - 14:16:25 10° S 14:18:27 15° SE 14:20:29 10° E daylight
09 Dec - 15:51:16 10° WSW 15:54:33 85° NNW 15:57:52 10° ENE daylight
09 Dec - 17:28:24 10° WNW 17:31:22 30° N 17:34:21 10° NE visible
09 Dec - 19:05:27 10° NW 19:08:28 31° N 19:11:29 10° ENE visible
09 Dec - 20:41:54 10° WNW 20:45:13 82° SSW 20:48:31 10° ESE night (unlit)
09 Dec - 22:19:40 10° WSW 22:21:15 13° SW 22:22:50 10° SSW night (unlit)
10 Dec - 14:59:22 10° SW 15:02:35 57° SSE 15:05:51 10° ENE daylight
10 Dec - 16:36:09 10° W 16:39:14 35° NNW 16:42:20 10° NE daylight
10 Dec - 18:13:23 10° WNW 18:16:18 28° N 18:19:13 10° ENE visible
10 Dec - 19:49:55 10° WNW 19:53:13 63° NNE 19:56:31 10° ESE visible
10 Dec - 21:26:50 10° W 21:29:29 22° SW 21:32:07 10° S night (unlit)
11 Dec - 14:07:43 10° SSW 14:10:41 33° SE 14:13:41 10° ENE daylight
11 Dec - 15:43:55 10° W 15:47:07 47° NNW 15:50:20 10° NE daylight
11 Dec - 17:21:14 10° WNW 17:24:07 27° N 17:27:00 10° ENE visible
11 Dec - 18:57:57 10° NW 19:01:08 43° NNE 19:04:19 10° E visible
11 Dec - 20:34:32 10° WNW 20:37:38 38° SW 20:40:44 10° SSE night (unlit)
